Probability
71 45 39 39 23 0 0 0 0 0 0 0 0 0 0 0 0 0 10 6 0 3 13 16 29 29 23 29 32 32 32 45 45 48 48 45 45 52 55 55 61 65 71 77 97 94 87 84 84
65 45 35 26 3 0 0 0 0 0 0 0 0 0 0 0 0 0 3 6 0 0 10 13 26 26 26 29 29 26 29 32 29 19 29 32 35 42 48 48 52 52 55 55 71 77 81 84 87
65 48 29 13 0 0 0 0 0 0 0 0 0 0 0 0 0 0 16 13 0 3 3 3 23 16 16 19 23 13 19 16 16 19 19 23 26 26 35 35 39 42 58 58 55 71 81 81 84
68 48 19 0 0 0 0 0 0 0 0 0 0 0 0 0 3 6 10 6 3 3 3 3 16 13 10 10 16 13 10 6 6 6 6 13 16 19 16 26 32 42 45 52 61 65 71 74 74
61 29 0 0 0 0 0 0 0 0 0 0 0 0 0 6 13 6 10 6 3 3 3 3 16 10 10 10 13 6 3 3 3 3 3 6 6 10 10 10 23 32 35 52 52 65 65 77 74
48 10 0 0 0 0 0 0 0 0 0 0 0 0 3 10 10 3 6 0 0 0 0 3 16 13 10 6 6 3 0 0 0 0 0 0 3 6 6 13 13 23 26 32 42 52 55 52 68
39 3 0 0 0 0 0 0 0 0 0 0 0 0 3 6 6 6 3 0 0 0 0 0 3 0 6 6 6 0 0 0 0 0 0 0 0 3 3 6 10 13 19 19 23 26 29 48 52
48 3 0 0 0 0 3 0 0 0 0 0 0 0 0 10 10 6 6 0 0 0 0 0 0 0 0 0 6 3 0 0 0 0 0 0 0 3 3 3 3 3 3 6 19 26 23 29 42
19 0 0 0 0 0 0 3 0 0 0 0 0 0 0 6 10 10 6 0 0 0 0 0 0 0 0 0 0 3 3 0 0 0 0 0 0 0 0 0 0 0 0 0 13 19 19 26 32
19 0 0 3 0 0 0 0 0 0 0 0 0 0 0 3 3 3 6 0 0 0 0 0 0 0 0 0 0 0 0 0 0 0 0 0 0 0 0 0 0 0 0 0 6 3 10 10 19
3 0 3 0 0 0 0 0 0 0 0 0 0 3 10 6 3 0 0 0 0 0 0 0 0 0 0 0 0 0 0 0 0 0 0 0 0 0 0 0 3 3 0 3 0 0 10 10 6
3 3 3 3 3 0 0 0 0 0 0 0 0 3 10 10 6 0 0 0 0 0 0 0 0 0 0 0 0 0 0 0 0 0 0 0 0 0 0 0 3 3 3 6 3 3 0 6 3
0 3 0 0 0 0 0 0 0 0 0 0 0 3 3 6 6 3 0 0 0 0 0 0 0 0 0 0 0 0 0 0 0 0 0 0 0 0 0 0 3 3 3 0 0 0 3 3 3
0 3 0 0 0 0 0 3 3 0 0 0 0 0 3 6 3 0 3 3 0 0 0 0 0 0 0 0 0 0 0 0 0 0 0 0 0 0 0 0 3 3 3 0 0 0 3 3 3
3 0 0 0 0 0 0 0 0 0 0 0 0 0 0 0 3 3 3 3 3 0 0 0 0 0 0 0 0 0 0 0 0 0 0 0 0 0 0 0 0 3 3 3 0 0 3 0 3
0 0 0 0 0 0 0 0 0 0 0 0 0 0 0 0 3 3 3 3 3 3 3 0 0 0 0 0 0 0 0 0 0 0 0 0 0 0 0 0 3 3 3 3 0 0 0 3 3
0 0 0 0 0 0 0 0 0 0 0 0 0 0 0 0 0 3 3 3 3 3 3 0 0 0 0 0 0 0 0 0 0 0 0 0 0 0 0 0 0 3 3 0 0 0 3 13 10
0 0 0 0 0 0 0 0 0 0 0 0 0 0 0 3 0 0 3 3 3 3 3 0 0 0 0 0 0 0 0 0 0 0 0 0 0 0 0 3 0 0 3 3 0 0 6 6 16
0 0 0 0 0 0 0 0 0 0 0 0 0 0 0 0 3 0 3 0 3 3 3 0 0 0 0 0 0 0 0 0 0 0 0 0 0 0 0 0 3 3 3 0 0 3 3 10 10
0 0 0 0 0 0 0 0 0 0 0 0 0 0 3 3 6 10 6 6 6 3 3 0 0 0 0 0 0 0 0 0 0 0 0 0 0 0 0 3 3 0 6 3 6 6 6 6 6
0 0 0 0 0 0 0 0 0 0 0 0 0 0 3 3 3 10 10 6 3 0 0 0 0 0 0 0 0 0 0 0 0 0 0 0 0 0 0 0 0 0 0 3 6 10 6 10 19
0 0 0 0 0 0 0 0 0 0 0 0 0 0 3 3 3 10 13 13 6 3 3 0 0 0 0 0 0 0 0 0 0 0 0 0 0 0 3 3 0 0 0 3 3 0 6 6 13
0 0 0 0 0 0 0 0 0 0 0 0 0 0 0 3 3 6 6 13 10 6 6 3 0 0 0 0 0 0 0 0 0 0 0 0 0 0 0 3 3 0 0 3 3 3 10 10 10
0 0 0 0 0 0 0 0 0 0 0 0 0 0 3 3 3 6 6 10 10 6 6 3 0 0 0 0 0 0 0 0 0 0 0 0 0 0 0 0 3 0 0 0 6 6 3 10 10
0 0 0 0 0 0 0 0 0 0 0 0 0 0 0 3 3 0 3 6 3 3 6 0 0 0 0 0 0 0 0 0 0 0 0 0 0 0 0 0 3 3 3 0 3 6 6 6 10
0 0 0 0 0 0 0 0 0 0 0 0 0 0 0 0 0 3 3 3 3 3 3 0 0 0 0 0 0 0 0 0 0 0 0 0 0 0 0 0 0 3 3 3 3 6 3 6 10
0 0 0 0 0 0 0 0 0 0 0 0 0 0 0 0 0 0 0 0 3 3 3 0 0 0 0 0 0 0 0 0 0 0 0 0 0 0 0 0 0 0 3 3 3 6 3 6 13
0 0 0 0 0 0 0 0 0 0 0 0 0 0 0 0 0 0 0 0 0 0 0 0 0 0 0 0 0 0 0 0 0 0 0 0 0 0 0 0 0 0 0 3 3 3 10 10 10
0 0 0 0 0 0 0 0 0 0 0 0 0 0 0 0 0 0 0 0 0 0 0 0 0 0 0 0 0 0 0 0 0 0 0 0 0 0 0 0 0 0 0 0 3 3 3 6 6
0 0 0 0 0 0 0 0 0 0 0 0 0 0 0 0 0 0 0 0 0 0 0 0 0 0 0 0 0 0 0 0 0 0 0 0 0 0 0 0 0 0 0 0 0 0 3 0 0
Height
5875 5874 5874 5875 5877 5877 5877 5878 5878 5878 5879 5880 5881 5882 5883 5884 5885 5887 5885 5883 5883 5882 5881 5881 5880 5879 5878 5878 5877 5876 5875 5874 5872 5871 5870 5869 5868 5866 5865 5865 5864 5863 5862 5862 5862 5862 5862 5863 5863
5874 5875 5876 5876 5877 5877 5878 5877 5878 5878 5879 5880 5880 5881 5882 5883 5883 5884 5883 5882 5882 5881 5880 5880 5879 5878 5877 5876 5875 5874 5873 5872 5871 5870 5868 5867 5866 5865 5863 5862 5861 5860 5860 5859 5859 5859 5859 5859 5860
5873 5874 5876 5876 5876 5877 5878 5878 5878 5878 5879 5880 5881 5881 5882 5882 5882 5882 5882 5881 5881 5880 5879 5878 5878 5877 5876 5875 5874 5873 5871 5870 5869 5868 5867 5865 5864 5862 5861 5860 5859 5858 5857 5856 5856 5855 5855 5856 5857
5872 5874 5876 5877 5876 5876 5877 5877 5878 5878 5879 5879 5880 5881 5881 5881 5881 5881 5881 5880 5880 5879 5878 5877 5876 5875 5874 5873 5872 5871 5870 5869 5868 5866 5865 5864 5862 5860 5859 5857 5856 5855 5854 5853 5852 5852 5852 5852 5853
5871 5873 5875 5875 5876 5876 5876 5877 5877 5878 5878 5879 5880 5880 5880 5881 5880 5880 5880 5879 5879 5878 5877 5876 5875 5874 5873 5872 5871 5870 5869 5868 5866 5865 5863 5862 5860 5858 5856 5854 5853 5852 5851 5850 5849 5849 5848 5848 5849
5870 5872 5874 5874 5875 5876 5876 5876 5877 5877 5878 5878 5879 5879 5879 5880 5879 5879 5878 5878 5877 5876 5875 5874 5873 5873 5872 5871 5870 5869 5868 5866 5865 5863 5861 5859 5858 5856 5854 5852 5850 5849 5848 5847 5846 5845 5845 5845 5845
5869 5871 5872 5873 5874 5875 5876 5876 5876 5877 5877 5878 5878 5878 5879 5879 5878 5878 5877 5877 5876 5875 5874 5873 5872 5872 5871 5870 5868 5867 5866 5865 5863 5861 5859 5857 5855 5853 5851 5849 5847 5846 5845 5843 5842 5842 5841 5841 5841
5865 5869 5870 5872 5873 5874 5875 5875 5876 5876 5877 5877 5877 5878 5878 5878 5877 5877 5876 5876 5875 5874 5873 5872 5871 5870 5869 5868 5867 5866 5865 5863 5861 5859 5857 5855 5853 5851 5849 5847 5845 5843 5841 5840 5839 5838 5838 5837 5838
5863 5867 5868 5870 5872 5873 5874 5875 5875 5876 5876 5876 5876 5877 5877 5877 5876 5876 5875 5875 5874 5873 5872 5871 5870 5869 5868 5867 5866 5865 5863 5861 5859 5857 5855 5853 5850 5848 5846 5844 5842 5840 5838 5837 5836 5835 5834 5834 5834
5861 5864 5866 5868 5870 5871 5872 5873 5874 5875 5875 5875 5875 5875 5875 5875 5875 5875 5874 5874 5873 5872 5871 5870 5869 5868 5867 5866 5864 5863 5861 5859 5857 5855 5853 5850 5848 5845 5843 5841 5839 5837 5835 5833 5832 5831 5830 5829 5829
5858 5861 5863 5866 5868 5869 5871 5872 5873 5873 5874 5874 5874 5874 5874 5874 5874 5873 5873 5872 5872 5871 5870 5869 5868 5867 5866 5865 5863 5861 5860 5858 5855 5853 5850 5848 5845 5843 5840 5838 5836 5833 5832 5830 5828 5827 5826 5825 5825
5856 5859 5861 5864 5866 5868 5869 5871 5871 5872 5873 5873 5873 5873 5873 5873 5872 5872 5872 5871 5870 5869 5869 5868 5867 5866 5865 5863 5862 5860 5858 5856 5854 5851 5848 5845 5843 5840 5838 5835 5832 5830 5828 5826 5824 5823 5821 5820 5820
5853 5856 5859 5862 5864 5866 5868 5869 5870 5870 5871 5871 5871 5871 5871 5871 5871 5871 5870 5870 5869 5868 5867 5866 5865 5864 5863 5862 5860 5859 5856 5854 5851 5849 5846 5843 5840 5838 5835 5832 5830 5827 5825 5823 5820 5819 5817 5816 5816
5850 5854 5857 5860 5862 5864 5866 5867 5868 5868 5869 5869 5870 5870 5870 5870 5870 5870 5869 5868 5868 5867 5866 5865 5864 5863 5862 5860 5859 5857 5855 5852 5849 5847 5844 5841 5838 5835 5833 5830 5827 5824 5821 5819 5816 5814 5813 5812 5811
5848 5852 5856 5858 5860 5862 5864 5866 5866 5867 5867 5868 5868 5868 5868 5869 5869 5868 5868 5867 5866 5866 5865 5864 5863 5862 5861 5859 5857 5855 5853 5851 5848 5845 5842 5839 5836 5833 5830 5827 5824 5821 5818 5815 5812 5810 5808 5807 5807
5846 5850 5854 5857 5858 5860 5864 5864 5865 5865 5866 5866 5867 5867 5867 5867 5867 5867 5866 5866 5865 5864 5863 5862 5862 5861 5859 5858 5856 5854 5852 5849 5847 5843 5840 5837 5834 5830 5827 5824 5821 5818 5814 5811 5808 5806 5804 5803 5802
5845 5849 5852 5855 5857 5859 5861 5862 5864 5864 5865 5865 5866 5866 5866 5866 5866 5865 5865 5864 5864 5863 5862 5861 5860 5859 5858 5857 5855 5853 5850 5848 5845 5842 5838 5835 5832 5828 5825 5821 5818 5815 5811 5807 5804 5802 5800 5799 5798
5844 5848 5851 5854 5856 5858 5859 5861 5862 5863 5864 5864 5865 5865 5865 5865 5865 5864 5864 5863 5862 5861 5861 5860 5859 5858 5857 5855 5854 5852 5849 5847 5844 5840 5837 5834 5830 5826 5822 5819 5816 5812 5808 5804 5801 5799 5797 5795 5795
5842 5846 5850 5852 5855 5857 5858 5860 5862 5862 5863 5864 5864 5864 5864 5864 5864 5863 5862 5862 5861 5860 5859 5858 5857 5856 5855 5854 5852 5850 5848 5845 5842 5839 5836 5832 5828 5824 5820 5817 5813 5809 5805 5802 5799 5796 5794 5793 5792
5841 5845 5849 5851 5854 5856 5858 5860 5861 5862 5863 5863 5864 5864 5863 5863 5863 5862 5861 5860 5859 5858 5857 5856 5856 5855 5853 5852 5851 5849 5847 5844 5841 5838 5835 5831 5827 5823 5819 5815 5811 5807 5804 5800 5797 5794 5792 5791 5791
5841 5845 5848 5851 5854 5856 5859 5860 5861 5862 5863 5863 5863 5863 5862 5862 5861 5861 5860 5859 5858 5857 5856 5855 5854 5853 5852 5851 5849 5848 5845 5843 5840 5837 5834 5830 5826 5822 5818 5813 5810 5806 5802 5799 5796 5793 5791 5790 5789
5841 5845 5848 5851 5854 5857 5860 5861 5861 5862 5862 5862 5862 5862 5861 5861 5860 5860 5859 5858 5857 5856 5855 5854 5853 5852 5851 5849 5848 5846 5844 5842 5839 5836 5833 5829 5825 5821 5817 5813 5809 5805 5802 5798 5795 5792 5790 5789 5788
5841 5845 5848 5851 5854 5857 5859 5861 5862 5861 5862 5862 5861 5861 5860 5860 5859 5859 5858 5857 5856 5855 5854 5853 5852 5851 5850 5848 5847 5845 5843 5841 5838 5835 5832 5829 5825 5821 5817 5813 5809 5805 5801 5798 5795 5792 5790 5789 5788
5842 5846 5849 5852 5855 5858 5859 5861 5861 5861 5861 5861 5860 5860 5859 5859 5858 5858 5857 5856 5855 5853 5852 5851 5850 5849 5848 5847 5845 5843 5842 5840 5837 5834 5831 5828 5824 5821 5817 5813 5809 5805 5801 5798 5795 5792 5790 5789 5788
5843 5847 5850 5853 5855 5857 5858 5860 5861 5860 5860 5860 5859 5859 5858 5858 5857 5856 5855 5854 5853 5852 5851 5850 5849 5848 5847 5845 5844 5842 5840 5838 5836 5833 5830 5827 5824 5821 5817 5813 5809 5805 5802 5798 5795 5793 5791 5790 5789
5843 5847 5851 5854 5855 5856 5857 5858 5860 5859 5859 5858 5858 5858 5857 5857 5856 5855 5854 5853 5852 5851 5850 5849 5848 5847 5845 5844 5842 5840 5838 5836 5834 5832 5829 5826 5823 5820 5817 5813 5809 5806 5803 5799 5796 5794 5792 5790 5789
5843 5846 5850 5853 5855 5856 5857 5858 5858 5857 5858 5857 5857 5856 5856 5855 5854 5853 5852 5851 5850 5849 5848 5847 5846 5845 5843 5842 5840 5839 5837 5835 5832 5830 5828 5825 5822 5819 5816 5813 5810 5806 5803 5800 5797 5795 5793 5791 5790
5844 5846 5850 5852 5854 5855 5856 5856 5857 5856 5856 5856 5855 5855 5854 5854 5853 5852 5851 5850 5849 5848 5846 5845 5844 5843 5841 5840 5838 5836 5834 5832 5830 5828 5826 5823 5821 5818 5815 5813 5810 5807 5803 5800 5798 5795 5793 5792 5790
5845 5847 5849 5851 5852 5854 5854 5857 5855 5855 5854 5854 5854 5853 5853 5852 5851 5850 5849 5848 5847 5846 5845 5843 5842 5841 5839 5837 5836 5834 5832 5830 5828 5826 5823 5821 5819 5816 5814 5811 5809 5806 5803 5801 5798 5796 5794 5792 5791
5844 5846 5848 5850 5851 5852 5853 5856 5853 5853 5853 5852 5852 5852 5851 5850 5850 5849 5848 5846 5845 5844 5843 5841 5840 5838 5837 5835 5833 5831 5829 5827 5825 5823 5820 5818 5816 5814 5812 5810 5807 5805 5803 5800 5798 5796 5794 5792 5791
Wind_Speed
4 3 3 2 2 3 4 4 4 5 7 7 7 7 7 6 5 5 4 5 5 5 6 6 6 7 7 8 9 10 11 11 10 10 10 10 10 11 11 11 12 13 13 14 14 14 15 15 15
6 4 3 3 3 3 4 4 5 5 6 6 6 6 6 6 5 5 4 4 5 5 6 6 6 7 7 8 9 10 10 10 10 10 9 9 9 10 11 12 12 13 13 13 14 15 14 15 16
7 5 4 3 3 3 4 4 5 5 5 5 5 5 5 5 5 4 4 4 4 5 5 6 6 7 8 9 9 9 9 9 9 9 9 10 10 10 11 12 13 13 14 14 15 15 15 15 16
8 6 5 4 4 3 4 5 5 5 4 4 4 4 5 5 4 4 4 4 4 5 5 6 7 7 8 8 8 8 8 8 9 9 10 11 11 12 12 13 13 14 14 15 15 16 16 16 16
10 8 5 5 4 4 5 5 4 5 4 4 4 4 4 5 5 4 4 4 5 5 6 6 7 7 8 8 7 7 8 9 9 10 11 12 13 13 14 14 14 14 15 15 15 16 16 16 17
11 9 8 6 5 5 5 4 4 4 3 4 4 4 5 5 5 5 5 5 5 5 6 7 7 7 7 7 7 8 9 10 10 11 12 13 14 14 15 15 15 15 15 15 15 15 15 16 17
13 11 10 8 7 5 5 4 4 4 3 4 4 5 6 6 5 5 5 5 6 6 6 7 7 6 6 7 7 8 9 10 11 12 13 14 15 15 15 15 16 16 16 16 15 15 15 15 16
16 14 12 10 8 7 6 5 5 4 3 4 6 6 6 6 6 5 5 6 6 6 6 6 6 6 6 7 8 9 10 11 12 13 14 15 15 15 16 16 15 16 16 16 16 16 15 15 16
17 15 14 11 9 8 7 6 5 6 6 6 6 6 6 6 6 6 6 6 7 6 6 6 6 6 7 7 8 10 11 12 13 13 14 15 15 16 16 16 16 16 16 17 17 17 16 16 16
19 16 14 13 11 8 7 6 5 6 6 6 6 7 7 7 7 7 7 7 7 7 7 7 7 7 7 8 9 10 12 13 13 14 15 15 16 16 16 16 17 17 17 17 17 17 17 17 17
20 17 15 13 12 10 8 7 6 5 6 7 7 7 7 7 7 7 8 8 7 7 8 8 7 8 8 9 10 11 13 14 14 15 15 16 16 16 16 17 17 17 17 17 17 18 18 18 18
20 18 16 14 12 10 9 8 8 7 7 7 7 7 8 8 7 7 8 8 8 8 8 8 8 8 9 10 11 12 13 14 15 15 15 16 16 16 16 17 17 17 17 17 18 18 17 18 18
22 19 17 15 12 11 9 9 9 9 8 8 8 9 8 8 8 8 8 9 9 8 9 9 9 9 9 10 11 12 13 14 15 15 15 15 16 16 17 17 17 17 17 18 18 17 17 17 18
22 19 18 15 13 11 10 9 8 8 9 8 8 7 7 7 7 8 8 8 8 9 9 9 9 10 10 11 12 13 13 14 14 15 15 16 16 16 17 17 18 17 17 18 18 17 17 16 16
22 20 17 16 14 12 10 9 9 8 8 8 7 6 7 7 8 8 9 9 9 9 10 10 10 10 11 11 12 12 13 14 15 15 16 16 17 17 17 17 18 17 18 18 18 17 16 15 15
21 19 17 15 13 12 11 10 7 7 6 5 6 7 7 7 8 8 9 9 9 10 10 10 10 11 11 11 11 12 13 14 15 15 16 17 17 17 17 17 18 18 18 18 17 16 15 15 15
21 18 16 14 11 11 9 8 6 6 5 4 5 6 6 7 8 8 8 9 9 10 10 10 10 11 11 11 12 12 13 14 15 15 16 17 18 18 17 18 18 18 19 18 16 15 14 13 13
21 18 16 14 12 10 9 7 6 6 5 4 4 5 6 7 8 8 8 9 10 10 10 10 10 11 11 11 11 12 13 14 15 15 16 17 18 18 18 18 18 19 19 17 14 13 12 11 11
21 19 16 14 12 11 9 8 7 6 4 4 4 5 6 7 8 8 9 9 10 10 10 10 10 11 11 11 11 12 13 14 14 15 16 17 19 19 19 18 19 18 18 16 13 11 10 9 9
20 19 17 15 13 11 9 8 6 4 3 3 4 5 7 7 8 8 9 10 10 9 10 10 10 10 11 11 11 12 12 13 14 15 16 17 19 20 20 18 18 18 17 15 13 11 9 7 7
19 19 17 15 13 10 9 7 6 4 3 3 4 6 7 7 7 8 9 9 9 9 9 10 10 10 10 11 11 12 12 13 14 15 16 17 19 20 20 19 18 17 16 15 13 10 8 6 5
20 18 17 15 13 11 9 7 6 3 2 3 4 5 6 7 7 8 9 9 9 9 9 10 10 10 10 11 11 12 12 13 14 15 16 17 19 20 20 19 18 17 16 15 12 9 7 5 4
20 18 17 15 12 11 9 7 5 3 2 3 4 4 5 6 7 8 8 9 9 9 9 10 10 10 10 11 12 12 13 13 14 15 16 17 18 19 20 19 18 17 17 15 12 9 6 4 2
19 17 15 14 13 11 9 6 4 3 3 3 4 5 6 6 7 8 8 8 9 9 9 9 9 10 10 11 12 13 14 14 15 15 16 17 18 19 19 19 18 18 17 15 12 9 7 4 2
18 17 16 15 13 11 8 7 5 4 3 3 4 5 5 6 7 8 8 8 9 9 9 9 9 10 11 12 12 13 14 15 15 16 16 17 18 18 19 19 18 17 17 15 12 9 7 5 2
17 16 15 13 12 10 8 7 5 3 3 3 4 5 6 6 7 8 8 8 9 9 9 9 10 11 12 13 13 14 14 15 16 16 16 17 17 18 18 18 17 16 16 15 12 10 7 6 3
16 14 13 12 11 9 8 6 4 3 3 3 4 5 6 6 7 7 8 8 9 9 10 10 10 11 13 13 14 15 15 16 16 16 16 17 17 17 17 17 17 16 15 14 13 10 8 6 4
13 13 13 12 11 9 7 5 4 4 3 3 4 4 5 6 7 7 8 8 9 9 10 10 11 12 13 14 15 15 16 16 16 17 17 17 17 17 17 17 16 16 15 14 13 11 8 7 5
13 12 11 11 10 8 7 6 5 3 3 3 3 4 5 5 6 7 8 9 9 10 10 11 12 13 14 14 15 16 17 17 17 17 17 17 17 17 17 17 16 16 15 14 12 11 10 8 6
12 11 10 10 9 8 7 6 5 4 3 3 3 3 4 5 6 7 8 9 10 10 11 12 13 14 15 16 17 17 18 18 18 19 19 18 18 18 18 17 17 16 15 14 12 11 10 9 7
Wind_Direction
239 236 225 182 145 155 167 166 169 173 178 178 182 190 202 209 214 231 251 269 280 288 295 301 306 312 317 318 318 318 317 316 315 315 311 308 305 303 300 294 289 283 278 275 268 264 260 256 253
234 223 215 180 151 148 155 164 173 173 178 182 185 190 199 209 218 234 256 276 286 290 295 301 304 310 313 315 315 315 316 316 318 318 316 312 308 305 302 299 296 288 282 279 272 266 261 257 253
219 212 203 181 174 171 164 170 176 177 179 184 192 200 204 209 220 240 259 276 289 293 296 300 303 307 313 315 316 316 317 318 319 319 317 316 312 308 304 301 298 293 287 282 277 270 262 260 255
210 211 208 201 196 187 176 169 174 180 187 197 203 211 218 222 231 246 259 273 288 296 301 303 306 308 313 314 316 318 319 320 320 319 318 316 313 309 306 303 299 296 291 285 280 274 267 264 256
210 204 204 205 205 196 174 174 178 186 194 208 215 228 234 233 237 248 261 277 292 302 304 304 306 308 313 315 316 320 322 321 319 318 317 316 314 311 307 304 300 296 292 288 282 278 272 265 257
211 207 209 211 209 208 197 191 189 197 215 234 242 251 249 246 249 255 264 283 294 299 300 302 305 310 314 315 318 320 320 320 319 318 318 317 315 313 310 306 303 299 295 292 287 281 276 268 259
212 209 213 214 215 220 212 204 207 212 229 249 257 263 262 257 260 262 271 286 293 294 297 305 305 307 309 311 314 317 318 319 319 318 318 318 316 314 311 309 306 303 299 296 291 285 278 271 262
212 210 213 215 214 218 219 226 229 236 253 267 269 266 266 265 271 270 279 288 293 297 298 299 299 302 303 306 312 315 318 321 320 319 319 319 318 315 313 311 309 305 301 297 293 288 279 271 263
213 212 213 214 214 218 223 228 234 242 259 267 269 270 269 272 276 278 284 292 296 295 295 295 296 299 302 306 312 316 319 321 321 320 319 320 318 317 314 312 309 306 302 297 293 289 282 274 265
212 213 212 212 213 216 224 225 232 251 262 266 272 278 278 272 276 283 287 294 297 296 296 293 292 298 303 308 312 316 319 320 320 320 320 321 320 318 316 313 310 307 303 299 294 288 282 275 267
213 213 213 213 214 218 226 225 235 261 266 269 272 282 284 274 272 283 291 295 296 296 296 292 292 298 302 307 312 315 318 320 320 320 321 321 321 320 318 316 313 309 304 300 296 290 283 276 269
211 212 213 214 217 225 232 235 243 257 264 271 273 279 280 277 278 284 291 295 296 295 295 294 295 298 302 307 311 314 317 319 319 321 322 323 323 322 320 318 315 310 305 302 299 293 285 278 270
210 210 211 214 219 225 232 238 245 251 257 266 271 277 281 275 276 285 291 293 296 294 293 296 299 299 301 306 311 315 318 319 321 323 325 325 324 324 322 320 317 312 308 305 301 295 288 279 268
207 208 209 213 217 222 232 239 241 249 253 259 267 273 272 271 276 287 291 292 293 292 293 294 297 298 301 306 312 316 320 322 324 326 327 327 326 325 323 322 319 315 311 307 302 296 289 281 269
203 206 208 213 217 222 228 232 239 245 253 256 259 267 271 273 282 287 291 292 293 294 294 293 294 297 301 305 312 318 322 325 327 328 329 330 329 327 326 325 323 319 315 310 303 296 289 282 270
198 201 204 209 213 216 218 220 223 231 245 252 260 272 280 285 292 295 294 294 295 295 294 292 293 296 299 304 311 319 324 326 329 331 333 334 332 331 329 328 326 322 320 316 307 298 289 282 270
195 197 200 203 203 200 202 206 211 223 232 246 263 276 290 300 302 300 298 299 297 296 294 293 294 296 298 303 310 317 323 326 330 334 337 338 337 335 333 332 329 326 323 320 312 304 292 282 269
190 191 194 196 194 192 190 192 200 209 218 239 261 282 296 305 310 305 302 302 300 298 295 294 295 296 297 301 308 316 323 328 332 337 340 341 342 340 336 334 333 330 327 324 318 310 298 283 266
187 190 191 190 187 185 184 187 193 203 221 247 273 294 304 309 312 309 305 303 300 299 297 296 297 295 295 300 308 316 323 328 333 339 342 343 344 344 341 338 336 335 334 331 325 317 305 287 264
184 186 186 181 178 177 180 186 192 208 231 264 287 300 307 312 311 308 304 303 302 300 300 300 302 301 299 302 310 315 322 329 335 340 344 346 346 346 345 343 341 339 339 337 333 324 313 291 262
179 179 178 177 176 178 180 185 190 199 233 278 296 305 309 310 306 305 306 307 306 304 302 300 302 303 303 305 311 316 322 329 336 340 344 347 348 349 348 348 346 344 343 341 338 332 322 297 263
174 174 175 173 173 175 173 185 193 202 246 287 302 309 312 313 313 315 315 315 315 312 307 303 303 304 305 307 311 316 321 328 336 340 344 348 350 352 351 352 351 349 347 344 343 337 331 313 274
170 170 170 170 171 174 174 185 195 206 261 287 301 311 313 317 318 318 319 320 319 317 314 310 308 308 309 311 312 315 320 325 332 338 342 346 350 352 352 353 353 352 353 350 349 349 342 331 297
165 165 167 167 170 178 181 187 200 217 250 281 301 311 316 320 320 319 320 322 322 321 321 318 315 314 314 316 317 319 320 323 328 334 339 343 348 351 352 353 355 355 355 356 355 355 353 352 339
165 164 164 168 175 185 184 193 207 214 235 279 304 316 320 323 324 322 321 323 326 326 324 321 318 317 317 318 320 320 321 322 324 328 334 339 344 348 351 353 355 356 358 358 357 356 358 357 345
166 166 166 172 179 184 190 202 205 210 239 283 305 316 323 326 329 328 328 327 325 325 323 321 321 320 319 318 318 318 319 320 321 324 329 333 339 344 348 351 353 355 358 359 359 0 359 359 347
161 166 166 170 177 187 196 201 210 228 258 293 311 317 321 327 330 330 330 331 329 326 324 322 321 322 323 321 319 318 318 319 320 322 325 329 332 337 342 346 349 351 354 357 357 356 357 352 347
163 167 173 176 182 192 202 214 226 238 265 297 313 319 321 326 331 332 332 330 329 328 327 325 322 323 324 322 320 319 318 318 319 320 322 324 326 329 334 338 342 346 348 350 352 353 350 349 346
170 173 175 179 184 193 207 215 223 237 260 286 303 313 320 324 329 333 335 334 332 330 329 327 325 323 323 322 320 319 319 316 315 316 317 319 321 322 325 329 333 338 342 345 345 347 344 338 333
175 178 180 186 189 191 204 213 221 232 251 275 298 315 323 327 330 333 334 335 334 332 329 327 324 323 322 321 320 318 318 316 314 312 312 313 314 316 318 320 323 327 331 335 336 336 336 332 326